User: anonymous   Login
Location: Unspecified
(0.0000°N, 0.0000°E)
Time: 07:08:10
(UTC+00:00)
Language:

DUCHIFAT 1 - Orbit

View from above orbital plane
View from above orbital plane
View from above satellite
View from above satellite

Ground track
Ground track

The orbit data is extracted from the following two-line orbital elements,

1 40021U 14033M   18016.31211095  .00000493  00000-0  56773-4 0  9994
2 40021  97.9179 294.7581 0012295 324.7522  35.2881 14.90170504194339
Epoch (UTC): 16 January 2018 07:29:26
Eccentricity: 0.0012295
inclination: 97.9179°
perigee height: 589 km
apogee height: 606 km
right ascension of ascending node: 294.7581°
argument of perigee: 324.7522°
revolutions per day: 14.90170504
mean anomaly at epoch: 35.2881°
orbit number at epoch: 19433

The dashed part of the orbit path shows where the satellite is in the earth's shadow,  

DLR